• In Uzbekistan
  • List of Countries
  • For 7 days
  • Water Temperature
  • Satellite Maps
  • Weather Map
  • Weather Widgets
  • user-avatar
    Login

    Hourly Weather Kabwe

    Today, 19 September, Wednesday

    Time Temperature Precipitation Wind Pressure Humidity
    00:00 +24°C° 0 mm 2 mps 662 mmHg 24%
    01:00 +23°C° 0 mm 2 mps 662 mmHg 24%
    02:00 +23°C° 0 mm 1 mps 662 mmHg 25%
    03:00 +22°C° 0 mm 1 mps 662 mmHg 26%
    04:00 +20°C° 0 mm 2 mps 662 mmHg 28%
    05:00 +20°C° 0 mm 2 mps 661 mmHg 29%
    06:00 +23°C° 0 mm 2 mps 662 mmHg 27%
    07:00 +25°C° 0 mm 3 mps 663 mmHg 25%
    08:00 +27°C° 0 mm 3 mps 664 mmHg 23%
    09:00 +29°C° 0 mm 3 mps 664 mmHg 19%
    10:00 +31°C° 0 mm 3 mps 665 mmHg 16%
    11:00 +34°C° 0 mm 4 mps 665 mmHg 13%
    12:00 +35°C° 0 mm 4 mps 664 mmHg 11%
    13:00 +36°C° 0 mm 4 mps 664 mmHg 10%
    14:00 +37°C° 0 mm 4 mps 663 mmHg 9%
    15:00 +36°C° 0 mm 4 mps 663 mmHg 9%
    16:00 +36°C° 0 mm 4 mps 662 mmHg 9%
    17:00 +35°C° 0 mm 4 mps 662 mmHg 9%
    18:00 +33°C° 0 mm 3 mps 662 mmHg 11%
    19:00 +29°C° 0 mm 3 mps 662 mmHg 13%
    20:00 +27°C° 0 mm 2 mps 662 mmHg 15%
    21:00 +26°C° 0 mm 2 mps 662 mmHg 17%
    22:00 +25°C° 0 mm 2 mps 662 mmHg 18%
    23:00 +24°C° 0 mm 2 mps 662 mmHg 19%

    Tomorrow, 20 September, Thursday

    Time Temperature Precipitation Wind Pressure Humidity
    00:00 +24°C° 0 mm 2 mps 662 mmHg 20%
    01:00 +23°C° 0 mm 2 mps 662 mmHg 22%
    02:00 +23°C° 0 mm 2 mps 662 mmHg 23%
    03:00 +21°C° 0 mm 2 mps 662 mmHg 24%
    04:00 +21°C° 0 mm 2 mps 662 mmHg 25%
    05:00 +20°C° 0 mm 2 mps 662 mmHg 27%
    06:00 +22°C° 0 mm 3 mps 662 mmHg 26%
    07:00 +25°C° 0 mm 3 mps 663 mmHg 25%
    08:00 +26°C° 0 mm 4 mps 664 mmHg 23%
    09:00 +29°C° 0 mm 4 mps 664 mmHg 20%
    10:00 +32°C° 0 mm 4 mps 665 mmHg 17%
    11:00 +34°C° 0 mm 4 mps 665 mmHg 14%
    12:00 +35°C° 0 mm 4 mps 664 mmHg 12%
    13:00 +36°C° 0 mm 4 mps 664 mmHg 11%
    14:00 +37°C° 0 mm 4 mps 663 mmHg 10%
    15:00 +36°C° 0 mm 4 mps 662 mmHg 10%
    16:00 +35°C° 0 mm 4 mps 662 mmHg 11%
    17:00 +35°C° 0 mm 5 mps 661 mmHg 12%
    18:00 +32°C° 0 mm 4 mps 662 mmHg 15%
    19:00 +29°C° 0 mm 3 mps 662 mmHg 18%
    20:00 +27°C° 0 mm 2 mps 662 mmHg 21%
    21:00 +27°C° 0 mm 2 mps 662 mmHg 23%
    22:00 +26°C° 0 mm 3 mps 663 mmHg 26%
    23:00 +26°C° 0 mm 3 mps 663 mmHg 28%

    Day after tomorrow, 21 September, Friday

    Time Temperature Precipitation Wind Pressure Humidity
    00:00 +25°C° 0 mm 2 mps 662 mmHg 32%
    01:00 +24°C° 0 mm 2 mps 662 mmHg 35%
    02:00 +24°C° 0 mm 2 mps 661 mmHg 39%
    03:00 +24°C° 0 mm 2 mps 661 mmHg 41%
    04:00 +23°C° 0 mm 2 mps 661 mmHg 43%
    05:00 +22°C° 0 mm 3 mps 661 mmHg 46%
    06:00 +24°C° 0 mm 3 mps 662 mmHg 41%
    07:00 +26°C° 0 mm 4 mps 663 mmHg 36%
    08:00 +27°C° 0 mm 5 mps 664 mmHg 31%
    09:00 +29°C° 0 mm 5 mps 664 mmHg 28%
    10:00 +32°C° 0 mm 5 mps 665 mmHg 24%
    11:00 +34°C° 0 mm 5 mps 665 mmHg 20%
    12:00 +34°C° 0 mm 5 mps 664 mmHg 19%
    13:00 +35°C° 0 mm 5 mps 663 mmHg 18%
    14:00 +36°C° 0 mm 4 mps 662 mmHg 16%
    15:00 +35°C° 0 mm 4 mps 662 mmHg 17%
    16:00 +35°C° 0 mm 4 mps 662 mmHg 17%
    17:00 +34°C° 0 mm 4 mps 661 mmHg 17%
    18:00 +33°C° 0 mm 4 mps 662 mmHg 20%
    19:00 +30°C° 0 mm 4 mps 662 mmHg 23%
    20:00 +28°C° 0 mm 3 mps 662 mmHg 26%
    21:00 +27°C° 0 mm 4 mps 662 mmHg 30%
    22:00 +27°C° 0 mm 4 mps 663 mmHg 34%
    23:00 +26°C° 0 mm 4 mps 663 mmHg 38%

    22 September, Saturday

    Time Temperature Precipitation Wind Pressure Humidity
    00:00 +25°C° 0 mm 4 mps 663 mmHg 39%
    01:00 +25°C° 0 mm 4 mps 662 mmHg 40%
    02:00 +25°C° 0 mm 4 mps 662 mmHg 41%
    03:00 +23°C° 0 mm 4 mps 662 mmHg 41%
    04:00 +23°C° 0 mm 4 mps 662 mmHg 41%
    05:00 +22°C° 0 mm 4 mps 662 mmHg 41%
    06:00 +23°C° 0 mm 4 mps 662 mmHg 38%
    07:00 +25°C° 0 mm 5 mps 663 mmHg 34%
    08:00 +27°C° 0 mm 5 mps 664 mmHg 30%
    09:00 +29°C° 0 mm 5 mps 664 mmHg 26%
    10:00 +32°C° 0 mm 5 mps 664 mmHg 23%
    11:00 +34°C° 0 mm 5 mps 665 mmHg 19%
    12:00 +35°C° 0 mm 4 mps 664 mmHg 17%
    13:00 +36°C° 0 mm 4 mps 663 mmHg 15%
    14:00 +36°C° 0 mm 4 mps 662 mmHg 14%
    15:00 +36°C° 0 mm 4 mps 662 mmHg 14%
    16:00 +35°C° 0 mm 4 mps 662 mmHg 14%
    17:00 +35°C° 0 mm 4 mps 661 mmHg 15%
    18:00 +33°C° 0 mm 4 mps 662 mmHg 17%
    19:00 +30°C° 0 mm 3 mps 662 mmHg 20%
    20:00 +28°C° 0 mm 3 mps 662 mmHg 22%
    21:00 +27°C° 0 mm 3 mps 662 mmHg 24%
    22:00 +26°C° 0 mm 3 mps 663 mmHg 25%
    23:00 +26°C° 0 mm 3 mps 663 mmHg 27%

    23 September, Sunday

    Time Temperature Precipitation Wind Pressure Humidity
    00:00 +25°C° 0 mm 3 mps 662 mmHg 28%
    01:00 +24°C° 0 mm 3 mps 662 mmHg 29%
    02:00 +24°C° 0 mm 3 mps 661 mmHg 30%
    03:00 +22°C° 0 mm 3 mps 661 mmHg 32%
    04:00 +22°C° 0 mm 3 mps 661 mmHg 34%
    05:00 +21°C° 0 mm 3 mps 661 mmHg 35%
    06:00 +22°C° 0 mm 4 mps 662 mmHg 34%
    07:00 +25°C° 0 mm 4 mps 663 mmHg 32%
    08:00 +26°C° 0 mm 5 mps 664 mmHg 31%
    09:00 +28°C° 0 mm 5 mps 664 mmHg 27%
    10:00 +30°C° 0 mm 5 mps 664 mmHg 23%
    11:00 +33°C° 0 mm 4 mps 664 mmHg 19%
    12:00 +34°C° 0 mm 4 mps 664 mmHg 17%
    13:00 +35°C° 0 mm 4 mps 663 mmHg 16%
    14:00 +37°C° 0 mm 3 mps 662 mmHg 14%
    15:00 +36°C° 0 mm 4 mps 662 mmHg 14%
    16:00 +35°C° 0 mm 4 mps 661 mmHg 15%
    17:00 +35°C° 0 mm 4 mps 661 mmHg 15%
    18:00 +33°C° 0 mm 4 mps 661 mmHg 17%
    19:00 +30°C° 0 mm 3 mps 662 mmHg 20%
    20:00 +28°C° 0 mm 3 mps 662 mmHg 22%
    21:00 +27°C° 0 mm 3 mps 662 mmHg 25%
    22:00 +26°C° 0 mm 3 mps 662 mmHg 27%
    23:00 +25°C° 0 mm 3 mps 662 mmHg 29%

    24 September, Monday

    Time Temperature Precipitation Wind Pressure Humidity
    00:00 +25°C° 0 mm 3 mps 662 mmHg 31%
    01:00 +24°C° 0 mm 3 mps 661 mmHg 33%
    02:00 +24°C° 0 mm 3 mps 661 mmHg 35%
    03:00 +22°C° 0 mm 3 mps 661 mmHg 37%
    04:00 +22°C° 0 mm 3 mps 661 mmHg 39%
    05:00 +21°C° 0 mm 3 mps 661 mmHg 42%
    06:00 +24°C° 0 mm 3 mps 662 mmHg 38%
    07:00 +25°C° 0 mm 4 mps 663 mmHg 35%
    08:00 +27°C° 0 mm 5 mps 664 mmHg 32%
    09:00 +29°C° 0 mm 5 mps 664 mmHg 28%
    10:00 +32°C° 0 mm 4 mps 664 mmHg 24%
    11:00 +34°C° 0 mm 4 mps 664 mmHg 20%
    12:00 +35°C° 0 mm 4 mps 663 mmHg 18%
    13:00 +36°C° 0 mm 3 mps 663 mmHg 15%
    14:00 +37°C° 0 mm 3 mps 662 mmHg 13%
    15:00 +36°C° 0 mm 3 mps 662 mmHg 13%
    16:00 +36°C° 0 mm 4 mps 661 mmHg 14%
    17:00 +35°C° 0 mm 4 mps 661 mmHg 14%
    18:00 +33°C° 0 mm 3 mps 661 mmHg 16%
    19:00 +30°C° 0 mm 3 mps 661 mmHg 19%
    20:00 +28°C° 0 mm 2 mps 662 mmHg 21%
    21:00 +27°C° 0 mm 2 mps 662 mmHg 23%
    22:00 +26°C° 0 mm 2 mps 662 mmHg 24%
    23:00 +25°C° 0 mm 3 mps 662 mmHg 26%
    Show more